Miscellaneous Local Product
Issued by NWS Hastings, NE

Home | Current Version | Previous Version | Text Only | Print | Product List | Glossary Off
Versions: 1 2 3 4 5 6 7 8 9 10 11 12 13 14 15 16 17 18 19 20 21 22 23 24 25 26 27 28 29 30 31 32 33 34 35 36 37 38 39 40 41 42 43 44 45 46 47 48 49 50

000
AXUS43 KGID 012002
MISGRI

GID CWA HOURLY WEATHER ROUNDUP
NATIONAL WEATHER SERVICE HASTINGS NE
300 PM CDT SAT AUG 01 2015

NOTE: "FAIR" INDICATES FEW OR NO CLOUDS BELOW 12,000 FEET WITH NO
SIGNIFICANT WEATHER AND/OR OBSTRUCTIONS TO VISIBILITY.

...SOUTH CENTRAL NEBRASKA...

CITY           SKY/WX    TMP DP  RH WIND       PRES   REMARKS
GRAND ISLAND   MOSUNNY   79  59  50 N16       30.08F
HASTINGS       SUNNY     85  62  46 W6        30.06F
KEARNEY        SUNNY     84  63  48 E6        30.07F
ORD            CLOUDY    74  58  57 S7        30.06F
YORK           PTSUNNY   79  66  65 N12G18    30.07R
AURORA         MOSUNNY   79  63  59 N12G24    30.07F
LEXINGTON      SUNNY     86  60  41 SE10G17   30.08F
HOLDREGE       SUNNY     85  61  44 NE9       30.07F
HEBRON         SUNNY     88  63  42 S7        30.03S

...NEBRASKA PANHANDLE...

CITY           SKY/WX    TMP DP  RH WIND       PRES   REMARKS
CHADRON        SUNNY     92  63  38 E9G17     29.97F HX  93
ALLIANCE       MOSUNNY   91  62  37 SE24G31   30.03F HX  91
SCOTTSBLUFF    SUNNY     93  55  27 VRB5      30.01F HX  91
SIDNEY         SUNNY     94  52  24 S10G20    30.06F HX  91

...WESTERN AND NORTH CENTRAL NEBRASKA...

CITY           SKY/WX    TMP DP  RH WIND       PRES   REMARKS
VALENTINE      MOSUNNY   79  58  48 S31G39    29.98F
AINSWORTH      MOSUNNY   77  60  55 S23G29    29.98F
ONEILL         CLOUDY    78  59  51 S15G22    29.98F
BROKEN BOW     MOSUNNY   81  56  42 NE14G21   30.10F
IMPERIAL       MOSUNNY   93  58  30 S21       30.03F HX  92
NORTH PLATTE   SUNNY     85  60  42 E17       30.08F
MCCOOK         SUNNY     92  60  34 SE7       30.04F HX  91

...EASTERN NEBRASKA...

CITY           SKY/WX    TMP DP  RH WIND       PRES   REMARKS
NORFOLK        LGT RAIN  74  61  63 SW9       30.00F
SO SIOUX CITY  CLOUDY    81  64  56 W3        29.95F
TEKAMAH        CLOUDY    82  70  66 SW6       29.99S
COLUMBUS       CLOUDY    79  61  53 W6        30.03F
ALBION         CLOUDY    72  56  56 N9        30.04F
OMAHA EPPLEY   CLOUDY    83  67  58 S6        29.99F
MILLARD        CLOUDY    79  68  69 SE3       30.01S
LINCOLN        PTSUNNY   89  66  46 NW15      30.04R HX  91
NEBRASKA CITY  CLOUDY    82  66  59 CALM      30.01S
BEATRICE       PTSUNNY   85  64  48 S10       30.00F
FALLS CITY     PTSUNNY   85  73  67 SW3       29.99F HX  91

...NORTHERN KANSAS...

CITY           SKY/WX    TMP DP  RH WIND       PRES   REMARKS
GOODLAND       SUNNY     90  50  25 S14       30.07F
HILL CITY      SUNNY     92  63  38 S12       30.04F HX  93
NORTON         CLEAR     88  61  40 SE15G21   30.03F
PHILLIPSBURG   SUNNY     91  64  40 SE3       30.02F HAZE    HX  93
SMITH CENTER   SUNNY     90  64  43 S9        30.03F HX  91
HAYS           MOSUNNY   91  63  38 SE10G21   30.03F HX  92
RUSSELL        MOSUNNY   93  62  35 S9        30.01F HX  93
CONCORDIA      MOSUNNY   89  69  51 VRB5      30.01F HX  93
SALINA         MOSUNNY   93  66  40 SE5       30.01F HX  96
TOPEKA         MOSUNNY   90  70  51 SW5       30.00F HX  95



USA.gov is the U.S. government's official web portal to all federal, state and local government web resources and services.